WZZ20VH EPWA-LIMJ

Flight info

Callsign WZZ20VH
Flight time 1h 59m
Altitude 36000
Route EVINA N744 NAVUR DCT PADKA DCT OGDAS DCT UPLAV DCT LEDVA DCT VAMET DCT RIFEN/N0451F350 DCT KOPER DCT NISIL DCT BEROK/N0452F360 DCT MIVKI/N0364F180 M730 KALMO
Aircraft A321/M-SDE3FGHIRWY/LB1

Departure

Time 2026-05-07 14:42
Airport Warsaw Chopin Airport (EPWA)

Arrival

Time 2026-05-07 16:41
Airport Genoa Cristoforo Colombo Airport (LIMJ)
Time Latitude Longitude Altitude Speed Heading
2026-05-07 14:15 52.17046 20.96810 337 ft 0 kts 276°
2026-05-07 14:36 52.17047 20.96802 339 ft 1 kts 276°
2026-05-07 14:36 52.17048 20.96777 334 ft 3 kts 276°
2026-05-07 14:37 52.17043 20.96739 337 ft 4 kts 240°
2026-05-07 14:37 52.16984 20.96750 336 ft 6 kts 152°
2026-05-07 14:37 52.16939 20.96789 336 ft 8 kts 152°
2026-05-07 14:38 52.16887 20.96834 335 ft 9 kts 151°
2026-05-07 14:38 52.16830 20.96886 335 ft 10 kts 151°
2026-05-07 14:38 52.16764 20.96945 336 ft 11 kts 152°
2026-05-07 14:38 52.16691 20.97008 336 ft 12 kts 152°
2026-05-07 14:39 52.16644 20.97125 336 ft 13 kts 115°
2026-05-07 14:39 52.16604 20.97266 337 ft 14 kts 115°
2026-05-07 14:39 52.16562 20.97416 338 ft 15 kts 115°
2026-05-07 14:39 52.16517 20.97575 335 ft 16 kts 115°
2026-05-07 14:40 52.16470 20.97743 336 ft 14 kts 114°
2026-05-07 14:40 52.16418 20.97803 338 ft 10 kts 191°
2026-05-07 14:40 52.16351 20.97758 339 ft 11 kts 203°
2026-05-07 14:40 52.16297 20.97712 336 ft 5 kts 236°
2026-05-07 14:41 52.16307 20.97664 337 ft 5 kts 290°
2026-05-07 14:41 52.16347 20.97514 334 ft 41 kts 294°
2026-05-07 14:41 52.16571 20.96726 339 ft 110 kts 294°
2026-05-07 14:41 52.16967 20.95321 420 ft 153 kts 294°
2026-05-07 14:42 52.17374 20.93797 1246 ft 144 kts 296°
2026-05-07 14:42 52.17781 20.92260 1744 ft 155 kts 296°
2026-05-07 14:42 52.18238 20.90548 2051 ft 174 kts 290°
2026-05-07 14:42 52.18274 20.88436 2219 ft 201 kts 263°
2026-05-07 14:43 52.17965 20.86102 2439 ft 223 kts 257°
2026-05-07 14:43 52.17520 20.83496 2552 ft 255 kts 255°
2026-05-07 14:43 52.16833 20.80708 3059 ft 267 kts 235°
2026-05-07 14:43 52.15482 20.78685 4043 ft 266 kts 211°
2026-05-07 14:44 52.13772 20.77520 4923 ft 267 kts 202°
2026-05-07 14:44 52.12007 20.76511 5717 ft 270 kts 201°
2026-05-07 14:44 52.10234 20.75576 6603 ft 267 kts 200°
2026-05-07 14:44 52.08456 20.74676 7362 ft 270 kts 200°
2026-05-07 14:45 52.06668 20.73737 8121 ft 269 kts 201°
2026-05-07 14:45 52.04895 20.72759 8915 ft 270 kts 201°
2026-05-07 14:45 52.03110 20.71746 9627 ft 274 kts 202°
2026-05-07 14:45 52.01305 20.70693 10248 ft 281 kts 202°
2026-05-07 14:46 51.99393 20.69575 10414 ft 303 kts 202°
2026-05-07 14:46 51.97333 20.68384 10573 ft 324 kts 201°
2026-05-07 14:46 51.95171 20.67157 11046 ft 332 kts 201°
2026-05-07 14:46 51.92978 20.65926 11709 ft 335 kts 201°
2026-05-07 14:47 51.90771 20.64692 12398 ft 337 kts 200°
2026-05-07 14:47 51.88553 20.63453 13098 ft 338 kts 200°
2026-05-07 14:47 51.86321 20.62208 13791 ft 340 kts 200°
2026-05-07 14:47 51.84075 20.60956 14400 ft 343 kts 200°
2026-05-07 14:48 51.81813 20.59698 14988 ft 345 kts 200°
2026-05-07 14:48 51.79531 20.58431 15570 ft 349 kts 200°
2026-05-07 14:48 51.77226 20.57153 16148 ft 352 kts 200°
2026-05-07 14:48 51.74931 20.55882 16712 ft 355 kts 200°
2026-05-07 14:49 51.72582 20.54580 17282 ft 358 kts 200°
2026-05-07 14:49 51.70213 20.53267 17846 ft 362 kts 200°
2026-05-07 14:49 51.67824 20.51945 18385 ft 365 kts 200°
2026-05-07 14:49 51.65411 20.50612 18880 ft 368 kts 200°
2026-05-07 14:50 51.62986 20.49270 19423 ft 369 kts 200°
2026-05-07 14:50 51.60550 20.47926 19971 ft 371 kts 200°
2026-05-07 14:50 51.58103 20.46581 20518 ft 373 kts 200°
2026-05-07 14:50 51.55638 20.45231 21048 ft 374 kts 200°
2026-05-07 14:51 51.53167 20.43882 21567 ft 376 kts 200°
2026-05-07 14:51 51.50683 20.42526 22082 ft 378 kts 200°
2026-05-07 14:51 51.48189 20.41162 22571 ft 379 kts 200°
2026-05-07 14:51 51.45690 20.39791 23047 ft 381 kts 200°
2026-05-07 14:52 51.43176 20.38414 23530 ft 382 kts 200°
2026-05-07 14:52 51.40656 20.37028 23928 ft 383 kts 201°
2026-05-07 14:52 51.38251 20.35198 24305 ft 384 kts 211°
2026-05-07 14:52 51.36061 20.32736 24672 ft 386 kts 217°
2026-05-07 14:53 51.33921 20.30134 25047 ft 387 kts 216°
2026-05-07 14:53 51.31768 20.27527 25415 ft 389 kts 216°
2026-05-07 14:53 51.29604 20.24918 25781 ft 391 kts 216°
2026-05-07 14:53 51.27427 20.22297 26141 ft 392 kts 216°
2026-05-07 14:54 51.25244 20.19673 26497 ft 394 kts 216°
2026-05-07 14:54 51.23051 20.17041 26854 ft 395 kts 216°
2026-05-07 14:54 51.20848 20.14401 27227 ft 397 kts 216°
2026-05-07 14:54 51.18638 20.11751 27581 ft 398 kts 216°
2026-05-07 14:55 51.16418 20.09092 27904 ft 400 kts 216°
2026-05-07 14:55 51.14190 20.06422 28226 ft 402 kts 216°
2026-05-07 14:55 51.11955 20.03744 28542 ft 404 kts 216°
2026-05-07 14:55 51.09703 20.01054 28855 ft 405 kts 215°
2026-05-07 14:56 51.07441 19.98363 29179 ft 407 kts 215°
2026-05-07 14:56 51.05163 19.95668 29496 ft 409 kts 215°
2026-05-07 14:56 51.02877 19.92967 29801 ft 411 kts 215°
2026-05-07 14:56 51.00645 19.90100 30103 ft 414 kts 221°
2026-05-07 14:57 50.98590 19.86903 30475 ft 413 kts 222°
2026-05-07 14:57 50.96547 19.83711 30859 ft 411 kts 222°
2026-05-07 14:57 50.94510 19.80536 31241 ft 410 kts 222°
2026-05-07 14:57 50.92475 19.77376 31619 ft 409 kts 222°
2026-05-07 14:58 50.90472 19.74276 32015 ft 407 kts 222°
2026-05-07 14:58 50.88449 19.71151 32389 ft 406 kts 222°
2026-05-07 14:58 50.86405 19.67994 32766 ft 404 kts 222°
2026-05-07 14:58 50.84396 19.64887 33133 ft 403 kts 222°
2026-05-07 14:59 50.82393 19.61793 33479 ft 402 kts 222°
2026-05-07 14:59 50.80420 19.58749 33830 ft 401 kts 222°
2026-05-07 14:59 50.78422 19.55672 34190 ft 400 kts 222°
2026-05-07 14:59 50.76433 19.52613 34468 ft 399 kts 222°
2026-05-07 15:00 50.74438 19.49554 34721 ft 400 kts 222°
2026-05-07 15:00 50.72443 19.46499 34968 ft 400 kts 222°
2026-05-07 15:00 50.70447 19.43444 35201 ft 400 kts 222°
2026-05-07 15:00 50.68448 19.40388 35434 ft 401 kts 222°
2026-05-07 15:01 50.66446 19.37331 35665 ft 401 kts 222°
2026-05-07 15:01 50.64438 19.34270 35859 ft 402 kts 222°
2026-05-07 15:01 50.60418 19.28141 35932 ft 402 kts 222°
2026-05-07 15:02 50.56385 19.22031 35923 ft 402 kts 222°
2026-05-07 15:02 50.52357 19.15943 35920 ft 402 kts 222°
2026-05-07 15:03 50.48329 19.09847 35920 ft 402 kts 222°
2026-05-07 15:03 50.44301 19.03768 35922 ft 402 kts 222°
2026-05-07 15:04 50.40283 18.97738 35929 ft 402 kts 222°
2026-05-07 15:04 50.36240 18.91678 35939 ft 403 kts 222°
2026-05-07 15:05 50.32193 18.85621 35949 ft 403 kts 222°
2026-05-07 15:05 50.28138 18.79571 35957 ft 403 kts 222°
2026-05-07 15:06 50.24079 18.73530 35970 ft 403 kts 222°
2026-05-07 15:06 50.20021 18.67508 35970 ft 402 kts 222°
2026-05-07 15:07 50.15962 18.61500 35958 ft 402 kts 222°
2026-05-07 15:07 50.11916 18.55506 35953 ft 401 kts 221°
2026-05-07 15:08 50.07867 18.49547 35958 ft 401 kts 221°
2026-05-07 15:08 50.03805 18.43594 35956 ft 401 kts 221°
2026-05-07 15:09 49.99747 18.37642 35950 ft 401 kts 221°
2026-05-07 15:09 49.95712 18.31728 35954 ft 401 kts 221°
2026-05-07 15:10 49.91595 18.25789 35959 ft 401 kts 220°
2026-05-07 15:10 49.87386 18.20193 35956 ft 401 kts 219°
2026-05-07 15:11 49.83103 18.14640 35956 ft 402 kts 219°
2026-05-07 15:11 49.78834 18.09045 35960 ft 402 kts 219°
2026-05-07 15:12 49.74572 18.03435 35959 ft 402 kts 219°
2026-05-07 15:12 49.70312 17.97830 35961 ft 402 kts 219°
2026-05-07 15:13 49.65954 17.92415 35963 ft 402 kts 217°
2026-05-07 15:13 49.61500 17.87206 35962 ft 402 kts 216°
2026-05-07 15:14 49.57044 17.81998 35963 ft 402 kts 216°
2026-05-07 15:14 49.52603 17.76766 35965 ft 402 kts 217°
2026-05-07 15:15 49.48166 17.71518 35964 ft 402 kts 217°
2026-05-07 15:15 49.43756 17.66307 35968 ft 402 kts 217°
2026-05-07 15:16 49.39310 17.61080 35966 ft 402 kts 217°
2026-05-07 15:16 49.34861 17.55865 35967 ft 402 kts 216°
2026-05-07 15:17 49.30423 17.50629 35969 ft 402 kts 218°
2026-05-07 15:17 49.26098 17.45181 35965 ft 403 kts 219°
2026-05-07 15:18 49.21808 17.39665 35978 ft 403 kts 219°
2026-05-07 15:18 49.17488 17.34194 35987 ft 403 kts 218°
2026-05-07 15:19 49.13147 17.28764 35992 ft 404 kts 218°
2026-05-07 15:19 49.08797 17.23340 35986 ft 404 kts 218°
2026-05-07 15:20 49.04444 17.17915 35987 ft 404 kts 218°
2026-05-07 15:20 49.00085 17.12492 35983 ft 404 kts 218°
2026-05-07 15:21 48.95725 17.07078 35979 ft 404 kts 218°
2026-05-07 15:21 48.91363 17.01677 35974 ft 404 kts 218°
2026-05-07 15:22 48.87738 16.97200 35971 ft 404 kts 218°
2026-05-07 15:22 48.83369 16.91816 35970 ft 404 kts 218°
2026-05-07 15:23 48.79001 16.86439 35970 ft 404 kts 218°
2026-05-07 15:23 48.74631 16.81070 35972 ft 405 kts 218°
2026-05-07 15:24 48.69883 16.76542 35978 ft 404 kts 208°
2026-05-07 15:24 48.64882 16.72612 35990 ft 407 kts 208°
2026-05-07 15:25 48.59850 16.68648 35981 ft 409 kts 208°
2026-05-07 15:25 48.54801 16.64681 35983 ft 409 kts 208°
2026-05-07 15:26 48.49746 16.60717 35973 ft 409 kts 208°
2026-05-07 15:26 48.44727 16.56796 35982 ft 409 kts 208°
2026-05-07 15:27 48.39665 16.52850 35986 ft 409 kts 208°
2026-05-07 15:27 48.34604 16.48908 35988 ft 409 kts 208°
2026-05-07 15:28 48.29546 16.44973 35988 ft 409 kts 208°
2026-05-07 15:28 48.24484 16.41061 35992 ft 409 kts 208°
2026-05-07 15:29 48.19419 16.37148 35992 ft 409 kts 208°
2026-05-07 15:29 48.14358 16.33242 35995 ft 409 kts 208°
2026-05-07 15:30 48.09295 16.29352 35996 ft 409 kts 208°
2026-05-07 15:30 48.04265 16.25493 35997 ft 409 kts 208°
2026-05-07 15:31 47.99200 16.21614 35997 ft 409 kts 208°
2026-05-07 15:31 47.94139 16.17744 35997 ft 409 kts 208°
2026-05-07 15:32 47.89082 16.13878 35999 ft 408 kts 208°
2026-05-07 15:32 47.84031 16.10027 36002 ft 407 kts 208°
2026-05-07 15:33 47.78984 16.06195 36000 ft 407 kts 208°
2026-05-07 15:33 47.73936 16.02370 36003 ft 407 kts 208°
2026-05-07 15:34 47.68890 15.98559 35999 ft 407 kts 208°
2026-05-07 15:34 47.63847 15.94754 36006 ft 407 kts 208°
2026-05-07 15:35 47.58804 15.90962 36003 ft 407 kts 208°
2026-05-07 15:35 47.53788 15.87188 35986 ft 407 kts 208°
2026-05-07 15:36 47.48711 15.83376 35998 ft 407 kts 208°
2026-05-07 15:36 47.43700 15.79625 35991 ft 406 kts 208°
2026-05-07 15:37 47.38621 15.75839 35988 ft 406 kts 208°
2026-05-07 15:37 47.33608 15.72113 35970 ft 406 kts 208°
2026-05-07 15:38 47.28558 15.68350 35962 ft 407 kts 208°
2026-05-07 15:38 47.23503 15.64599 35968 ft 407 kts 208°
2026-05-07 15:39 47.18441 15.60857 35962 ft 407 kts 208°
2026-05-07 15:39 47.13377 15.57120 35937 ft 407 kts 209°
2026-05-07 15:40 47.08305 15.53385 35930 ft 408 kts 209°
2026-05-07 15:40 47.03226 15.49655 35935 ft 408 kts 209°
2026-05-07 15:41 46.98147 15.45928 35938 ft 408 kts 209°
2026-05-07 15:41 46.93060 15.42209 35925 ft 409 kts 209°
2026-05-07 15:42 46.87968 15.38487 35931 ft 409 kts 209°
2026-05-07 15:42 46.82869 15.34767 35932 ft 410 kts 209°
2026-05-07 15:43 46.77940 15.30645 35931 ft 406 kts 220°
2026-05-07 15:43 46.74154 15.24597 35922 ft 404 kts 233°
2026-05-07 15:44 46.70785 15.18094 35925 ft 405 kts 233°
2026-05-07 15:44 46.67359 15.11573 35947 ft 406 kts 233°
2026-05-07 15:45 46.63921 15.05041 35939 ft 407 kts 233°
2026-05-07 15:45 46.60480 14.98506 35931 ft 407 kts 233°
2026-05-07 15:46 46.55306 14.88713 35945 ft 407 kts 233°
2026-05-07 15:47 46.51857 14.82190 35935 ft 406 kts 233°
2026-05-07 15:47 46.48415 14.75685 35951 ft 407 kts 233°
2026-05-07 15:48 46.44953 14.69178 35951 ft 407 kts 233°
2026-05-07 15:48 46.41490 14.62681 35954 ft 407 kts 233°
2026-05-07 15:49 46.38034 14.56204 35977 ft 406 kts 234°
2026-05-07 15:49 46.34568 14.49741 35976 ft 407 kts 233°
2026-05-07 15:50 46.31104 14.43274 35977 ft 407 kts 233°
2026-05-07 15:50 46.27631 14.36820 35973 ft 406 kts 233°
2026-05-07 15:51 46.24157 14.30391 35969 ft 405 kts 233°
2026-05-07 15:51 46.20719 14.24026 35978 ft 404 kts 233°
2026-05-07 15:52 46.17263 14.17633 35978 ft 404 kts 233°
2026-05-07 15:52 46.13799 14.11261 35988 ft 403 kts 233°
2026-05-07 15:53 46.10337 14.04907 35996 ft 403 kts 233°
2026-05-07 15:53 46.06876 13.98563 36011 ft 403 kts 233°
2026-05-07 15:54 46.03410 13.92226 36004 ft 403 kts 233°
2026-05-07 15:54 45.99942 13.85898 36010 ft 403 kts 233°
2026-05-07 15:55 45.96476 13.79567 36009 ft 402 kts 233°
2026-05-07 15:55 45.93003 13.73256 36017 ft 403 kts 233°
2026-05-07 15:56 45.89519 13.66949 36021 ft 403 kts 233°
2026-05-07 15:56 45.86035 13.60653 36024 ft 403 kts 234°
2026-05-07 15:57 45.83279 13.53705 36024 ft 401 kts 244°
2026-05-07 15:57 45.80814 13.46533 36039 ft 401 kts 244°
2026-05-07 15:58 45.78341 13.39422 36031 ft 401 kts 244°
2026-05-07 15:58 45.75845 13.32275 36020 ft 401 kts 244°
2026-05-07 15:59 45.73355 13.25145 36018 ft 400 kts 244°
2026-05-07 15:59 45.70876 13.18022 36014 ft 400 kts 244°
2026-05-07 16:00 45.68390 13.10914 36001 ft 399 kts 244°
2026-05-07 16:00 45.65887 13.03827 35996 ft 399 kts 244°
2026-05-07 16:01 45.63385 12.96753 36006 ft 399 kts 244°
2026-05-07 16:01 45.60885 12.89673 35989 ft 399 kts 244°
2026-05-07 16:02 45.58380 12.82611 35994 ft 398 kts 244°
2026-05-07 16:02 45.55876 12.75564 35996 ft 398 kts 244°
2026-05-07 16:03 45.53367 12.68533 35999 ft 398 kts 244°
2026-05-07 16:03 45.50876 12.61557 35999 ft 397 kts 244°
2026-05-07 16:04 45.48366 12.54539 35998 ft 397 kts 244°
2026-05-07 16:04 45.45849 12.47531 35990 ft 397 kts 244°
2026-05-07 16:05 45.43323 12.40532 35994 ft 397 kts 244°
2026-05-07 16:05 45.40793 12.33540 35998 ft 397 kts 244°
2026-05-07 16:06 45.38270 12.26547 35995 ft 397 kts 244°
2026-05-07 16:06 45.35743 12.19562 35997 ft 397 kts 244°
2026-05-07 16:07 45.33199 12.12592 35994 ft 397 kts 244°
2026-05-07 16:07 45.30670 12.05674 36001 ft 397 kts 244°
2026-05-07 16:08 45.28116 11.98659 36004 ft 398 kts 244°
2026-05-07 16:08 45.25581 11.91738 36000 ft 398 kts 244°
2026-05-07 16:09 45.23016 11.84781 36011 ft 398 kts 243°
2026-05-07 16:09 45.20449 11.77821 36015 ft 398 kts 244°
2026-05-07 16:10 45.17880 11.70865 36015 ft 398 kts 243°
2026-05-07 16:10 45.15301 11.63925 36004 ft 398 kts 243°
2026-05-07 16:11 45.12694 11.57017 36033 ft 398 kts 243°
2026-05-07 16:11 45.10047 11.50136 36025 ft 398 kts 243°
2026-05-07 16:12 45.07393 11.43254 36024 ft 398 kts 243°
2026-05-07 16:12 45.04747 11.36379 36036 ft 398 kts 243°
2026-05-07 16:13 45.02101 11.29503 36036 ft 398 kts 243°
2026-05-07 16:13 44.99421 11.22654 36028 ft 398 kts 242°
2026-05-07 16:14 44.96687 11.15851 36031 ft 398 kts 242°
2026-05-07 16:14 44.93946 11.09064 36033 ft 398 kts 242°
2026-05-07 16:15 44.91673 11.03421 36040 ft 398 kts 242°
2026-05-07 16:15 44.88491 10.95537 36039 ft 398 kts 242°
2026-05-07 16:16 44.85744 10.88767 36028 ft 398 kts 242°
2026-05-07 16:16 44.83446 10.83091 35954 ft 398 kts 242°
2026-05-07 16:16 44.82077 10.79716 35697 ft 396 kts 242°
2026-05-07 16:17 44.80713 10.76355 35452 ft 395 kts 242°
2026-05-07 16:17 44.79347 10.72999 35215 ft 394 kts 242°
2026-05-07 16:17 44.78003 10.69698 34967 ft 394 kts 242°
2026-05-07 16:17 44.76641 10.66359 34746 ft 393 kts 242°
2026-05-07 16:18 44.75274 10.63013 34122 ft 395 kts 242°
2026-05-07 16:18 44.73899 10.59648 33344 ft 397 kts 242°
2026-05-07 16:18 44.72517 10.56278 32671 ft 397 kts 242°
2026-05-07 16:18 44.71147 10.52944 32293 ft 391 kts 242°
2026-05-07 16:19 44.69799 10.49659 31819 ft 386 kts 242°
2026-05-07 16:19 44.68468 10.46418 31367 ft 381 kts 242°
2026-05-07 16:19 44.67151 10.43214 30933 ft 376 kts 242°
2026-05-07 16:19 44.65847 10.40045 30490 ft 375 kts 242°
2026-05-07 16:20 44.64542 10.36873 30017 ft 375 kts 242°
2026-05-07 16:20 44.63240 10.33714 29544 ft 373 kts 242°
2026-05-07 16:20 44.61942 10.30568 29062 ft 372 kts 242°
2026-05-07 16:20 44.60648 10.27439 28628 ft 370 kts 242°
2026-05-07 16:21 44.59358 10.24324 28191 ft 368 kts 242°
2026-05-07 16:21 44.58075 10.21235 27767 ft 366 kts 242°
2026-05-07 16:21 44.56792 10.18147 27332 ft 366 kts 242°
2026-05-07 16:21 44.55517 10.15069 26902 ft 365 kts 242°
2026-05-07 16:22 44.54244 10.12004 26454 ft 363 kts 242°
2026-05-07 16:22 44.52975 10.08953 26048 ft 362 kts 242°
2026-05-07 16:22 44.51710 10.05913 25642 ft 360 kts 242°
2026-05-07 16:22 44.50446 10.02882 25241 ft 359 kts 242°
2026-05-07 16:23 44.49187 9.99866 24835 ft 358 kts 242°
2026-05-07 16:23 44.47947 9.96902 24428 ft 357 kts 242°
2026-05-07 16:23 44.46692 9.93901 24036 ft 356 kts 242°
2026-05-07 16:23 44.45440 9.90914 23656 ft 356 kts 241°
2026-05-07 16:24 44.44188 9.87932 23223 ft 354 kts 242°
2026-05-07 16:24 44.42939 9.84966 22843 ft 354 kts 241°
2026-05-07 16:24 44.41691 9.81999 22436 ft 354 kts 240°
2026-05-07 16:24 44.40443 9.79028 22044 ft 354 kts 241°
2026-05-07 16:25 44.39194 9.76060 21637 ft 353 kts 241°
2026-05-07 16:25 44.37949 9.73104 21225 ft 352 kts 241°
2026-05-07 16:25 44.36707 9.70162 20818 ft 351 kts 241°
2026-05-07 16:25 44.35465 9.67226 20411 ft 350 kts 241°
2026-05-07 16:26 44.34241 9.64295 19990 ft 349 kts 243°
2026-05-07 16:26 44.33353 9.61159 19533 ft 347 kts 256°
2026-05-07 16:26 44.33005 9.57845 19081 ft 345 kts 269°
2026-05-07 16:26 44.33196 9.54521 18630 ft 344 kts 281°
2026-05-07 16:27 44.33816 9.51295 18157 ft 344 kts 285°
2026-05-07 16:27 44.34473 9.48089 17673 ft 343 kts 285°
2026-05-07 16:27 44.35120 9.44895 17219 ft 341 kts 285°
2026-05-07 16:27 44.35760 9.41706 16771 ft 340 kts 285°
2026-05-07 16:28 44.36394 9.38533 16303 ft 338 kts 285°
2026-05-07 16:28 44.37026 9.35383 15856 ft 335 kts 285°
2026-05-07 16:28 44.37655 9.32258 15415 ft 333 kts 285°
2026-05-07 16:28 44.38281 9.29148 14981 ft 332 kts 285°
2026-05-07 16:29 44.38903 9.26046 14543 ft 331 kts 285°
2026-05-07 16:29 44.39520 9.22957 14111 ft 328 kts 285°
2026-05-07 16:29 44.40130 9.19891 13661 ft 328 kts 285°
2026-05-07 16:29 44.40737 9.16824 13208 ft 326 kts 285°
2026-05-07 16:30 44.41341 9.13776 12772 ft 324 kts 285°
2026-05-07 16:30 44.41932 9.10751 12295 ft 322 kts 282°
2026-05-07 16:30 44.42050 9.07628 11739 ft 323 kts 262°
2026-05-07 16:30 44.41377 9.04672 11324 ft 319 kts 243°
2026-05-07 16:31 44.40288 9.02029 10928 ft 316 kts 240°
2026-05-07 16:31 44.39176 8.99387 10523 ft 314 kts 240°
2026-05-07 16:31 44.38068 8.96774 10220 ft 308 kts 241°
2026-05-07 16:31 44.36997 8.94255 10099 ft 296 kts 241°
2026-05-07 16:32 44.35965 8.91826 9929 ft 286 kts 241°
2026-05-07 16:32 44.34963 8.89457 9703 ft 281 kts 240°
2026-05-07 16:32 44.33957 8.87072 9214 ft 286 kts 240°
2026-05-07 16:32 44.32946 8.84674 8754 ft 285 kts 240°
2026-05-07 16:33 44.31944 8.82301 8195 ft 282 kts 240°
2026-05-07 16:33 44.30953 8.79960 7482 ft 279 kts 239°
2026-05-07 16:33 44.29979 8.77664 7001 ft 267 kts 239°
2026-05-07 16:33 44.29079 8.75541 6923 ft 245 kts 239°
2026-05-07 16:34 44.28232 8.73548 6866 ft 233 kts 239°
2026-05-07 16:34 44.27479 8.71589 6750 ft 228 kts 249°
2026-05-07 16:34 44.27171 8.69426 6636 ft 229 kts 267°
2026-05-07 16:34 44.27379 8.67237 6232 ft 227 kts 285°
2026-05-07 16:35 44.27808 8.65112 5874 ft 228 kts 283°
2026-05-07 16:35 44.28222 8.62981 5530 ft 226 kts 284°
2026-05-07 16:35 44.28930 8.61081 5186 ft 220 kts 311°
2026-05-07 16:35 44.30202 8.60003 4843 ft 212 kts 345°
2026-05-07 16:36 44.31635 8.59990 4498 ft 204 kts 14°
2026-05-07 16:36 44.32982 8.60491 4182 ft 198 kts 17°
2026-05-07 16:36 44.34249 8.61086 3863 ft 192 kts 30°
2026-05-07 16:36 44.35312 8.62162 3574 ft 183 kts 51°
2026-05-07 16:37 44.36038 8.63530 3320 ft 176 kts 65°
2026-05-07 16:37 44.36650 8.65033 3062 ft 180 kts 65°
2026-05-07 16:37 44.37277 8.66548 2791 ft 180 kts 65°
2026-05-07 16:37 44.37898 8.68040 2531 ft 171 kts 63°
2026-05-07 16:38 44.38474 8.69423 2264 ft 159 kts 64°
2026-05-07 16:38 44.39014 8.70731 2049 ft 152 kts 64°
2026-05-07 16:38 44.39537 8.72004 1834 ft 152 kts 66°
2026-05-07 16:38 44.40069 8.73276 1627 ft 152 kts 63°
2026-05-07 16:39 44.40608 8.74534 1308 ft 150 kts 62°
2026-05-07 16:39 44.41151 8.75863 1178 ft 164 kts 64°
2026-05-07 16:39 44.41645 8.77198 990 ft 148 kts 71°
2026-05-07 16:39 44.41875 8.78587 689 ft 150 kts 88°
2026-05-07 16:40 44.41895 8.80043 421 ft 147 kts 95°
2026-05-07 16:40 44.41743 8.81456 241 ft 145 kts 108°
2026-05-07 16:40 44.41472 8.82773 39 ft 141 kts 109°
2026-05-07 16:40 44.41240 8.83954 21 ft 106 kts 105°
2026-05-07 16:41 44.41089 8.84714 18 ft 56 kts 105°
2026-05-07 16:41 44.41025 8.85036 15 ft 28 kts 106°
2026-05-07 16:41 44.41019 8.85139 13 ft 8 kts 62°
2026-05-07 16:41 44.41056 8.85208 13 ft 9 kts 51°
2026-05-07 16:42 44.41105 8.85243 15 ft 5 kts 15°
2026-05-07 16:42 44.41134 8.85254 18 ft 4 kts 15°
2026-05-07 16:42 44.41161 8.85264 17 ft 4 kts 15°
2026-05-07 16:42 44.41199 8.85278 18 ft 6 kts 15°
2026-05-07 16:43 44.41245 8.85293 18 ft 7 kts
2026-05-07 16:43 44.41287 8.85246 18 ft 9 kts 306°
2026-05-07 16:43 44.41311 8.85173 18 ft 4 kts 288°
2026-05-07 16:43 44.41327 8.85156 19 ft 3 kts
2026-05-07 16:44 44.41355 8.85165 18 ft 5 kts 15°
2026-05-07 16:44 44.41376 8.85173 18 ft 0 kts 15°